Time,TemperatureF,DewpointF,PressureIn,WindDirection,WindDirectionDegrees,WindSpeedMPH,WindSpeedGustMPH,Humidity,HourlyPrecipIn,Conditions,Clouds,dailyrainin,SoftwareType,DateUTC
2013-09-19 00:00:00,-999.0,-99.9,-100.00,North,-999,1.0,3.0,83,-99.99,,,-99.99,,2013-09-19 06:00:00,
2013-09-19 00:22:00,-999.0,-99.9,-100.00,North,-999,1.0,3.0,83,-99.99,,,-99.99,,2013-09-19 06:22:00,
2013-09-19 00:32:00,-999.0,-99.9,-100.00,North,-999,1.0,3.0,83,-99.99,,,-99.99,,2013-09-19 06:32:00,
2013-09-19 00:43:00,-999.0,-99.9,-100.00,North,-999,1.0,3.0,83,-99.99,,,-99.99,,2013-09-19 06:43:00,
2013-09-19 00:52:00,-999.0,-99.9,-100.00,North,-999,1.0,3.0,83,-99.99,,,-99.99,,2013-09-19 06:52:00,
2013-09-19 01:00:00,67.0,-99.9,-100.00,North,-999,0.0,2.0,82,-99.99,,,-99.99,,2013-09-19 07:00:00,
2013-09-19 01:22:00,-999.0,-99.9,-100.00,North,-999,0.0,2.0,82,-99.99,,,-99.99,,2013-09-19 07:22:00,
2013-09-19 01:42:00,67.0,-99.9,-100.00,North,-999,0.0,2.0,82,-99.99,,,-99.99,,2013-09-19 07:42:00,
2013-09-19 01:52:00,67.0,-99.9,-100.00,North,-999,0.0,2.0,82,-99.99,,,-99.99,,2013-09-19 07:52:00,
2013-09-19 02:00:00,67.0,-99.9,-100.00,North,-999,1.0,4.0,83,-99.99,,,-99.99,,2013-09-19 08:00:00,
2013-09-19 02:22:00,-999.0,-99.9,-100.00,North,-999,1.0,4.0,83,-99.99,,,-99.99,,2013-09-19 08:22:00,
2013-09-19 02:42:00,67.0,-99.9,-100.00,North,-999,1.0,4.0,83,-99.99,,,-99.99,,2013-09-19 08:42:00,
2013-09-19 02:52:00,67.0,-99.9,-100.00,North,-999,1.0,4.0,83,-99.99,,,-99.99,,2013-09-19 08:52:00,
2013-09-19 03:00:00,64.0,-99.9,-100.00,North,-999,1.0,3.0,89,-99.99,,,-99.99,,2013-09-19 09:00:00,
2013-09-19 03:22:00,-999.0,-99.9,-100.00,North,-999,1.0,3.0,89,-99.99,,,-99.99,,2013-09-19 09:22:00,
2013-09-19 03:43:00,64.0,-99.9,-100.00,North,-999,1.0,3.0,89,-99.99,,,-99.99,,2013-09-19 09:43:00,
2013-09-19 03:53:00,64.0,-99.9,-100.00,North,-999,1.0,3.0,89,-99.99,,,-99.99,,2013-09-19 09:53:00,
2013-09-19 04:00:00,63.0,-99.9,-100.00,North,-999,1.0,2.0,92,-99.99,,,-99.99,,2013-09-19 10:00:00,
2013-09-19 04:24:00,-999.0,-99.9,-100.00,North,-999,1.0,2.0,92,-99.99,,,-99.99,,2013-09-19 10:24:00,
2013-09-19 04:43:00,63.0,-99.9,-100.00,North,-999,1.0,2.0,92,-99.99,,,-99.99,,2013-09-19 10:43:00,
2013-09-19 04:52:00,63.0,-99.9,-100.00,North,-999,1.0,2.0,92,-99.99,,,-99.99,,2013-09-19 10:52:00,
2013-09-19 05:00:00,62.0,-99.9,-100.00,North,-999,1.0,2.0,94,-99.99,,,-99.99,,2013-09-19 11:00:00,
2013-09-19 05:22:00,-999.0,-99.9,-100.00,North,-999,1.0,2.0,94,-99.99,,,-99.99,,2013-09-19 11:22:00,
2013-09-19 05:42:00,62.0,-99.9,-100.00,North,-999,1.0,2.0,94,-99.99,,,-99.99,,2013-09-19 11:42:00,
2013-09-19 05:53:00,62.0,-99.9,-100.00,North,-999,1.0,2.0,94,-99.99,,,-99.99,,2013-09-19 11:53:00,
2013-09-19 06:00:00,62.0,-99.9,-100.00,North,-999,2.0,3.0,95,-99.99,,,-99.99,,2013-09-19 12:00:00,
2013-09-19 06:43:00,62.0,-99.9,-100.00,North,-999,2.0,3.0,95,-99.99,,,-99.99,,2013-09-19 12:43:00,
2013-09-19 06:52:00,62.0,-99.9,-100.00,North,-999,2.0,3.0,95,-99.99,,,-99.99,,2013-09-19 12:52:00,
2013-09-19 07:00:00,62.0,-99.9,-100.00,North,-999,1.0,2.0,94,-99.99,,,-99.99,,2013-09-19 13:00:00,
2013-09-19 07:43:00,62.0,-99.9,-100.00,North,-999,1.0,2.0,94,-99.99,,,-99.99,,2013-09-19 13:43:00,
2013-09-19 07:52:00,62.0,-99.9,-100.00,North,-999,1.0,2.0,94,-99.99,,,-99.99,,2013-09-19 13:52:00,
2013-09-19 08:00:00,65.0,-99.9,-100.00,North,-999,0.0,2.0,89,-99.99,,,-99.99,,2013-09-19 14:00:00,
2013-09-19 08:22:00,-999.0,-99.9,-100.00,North,-999,0.0,2.0,89,-99.99,,,-99.99,,2013-09-19 14:22:00,
2013-09-19 08:42:00,65.0,-99.9,-100.00,North,-999,0.0,2.0,89,-99.99,,,-99.99,,2013-09-19 14:42:00,
2013-09-19 08:52:00,65.0,-99.9,-100.00,North,-999,0.0,2.0,89,-99.99,,,-99.99,,2013-09-19 14:52:00,
2013-09-19 09:00:00,71.0,-99.9,-100.00,North,-999,2.0,6.0,75,-99.99,,,-99.99,,2013-09-19 15:00:00,
2013-09-19 09:22:00,-999.0,-99.9,-100.00,North,-999,2.0,6.0,75,-99.99,,,-99.99,,2013-09-19 15:22:00,
2013-09-19 09:43:00,71.0,-99.9,-100.00,North,-999,2.0,6.0,75,-99.99,,,-99.99,,2013-09-19 15:43:00,
2013-09-19 09:54:00,71.0,-99.9,-100.00,North,-999,2.0,6.0,75,-99.99,,,-99.99,,2013-09-19 15:54:00,
2013-09-19 10:00:00,75.0,-99.9,-100.00,North,-999,4.0,7.0,62,-99.99,,,-99.99,,2013-09-19 16:00:00,
2013-09-19 10:24:00,-999.0,-99.9,-100.00,North,-999,4.0,7.0,62,-99.99,,,-99.99,,2013-09-19 16:24:00,
2013-09-19 10:43:00,75.0,-99.9,-100.00,North,-999,4.0,7.0,62,-99.99,,,-99.99,,2013-09-19 16:43:00,
2013-09-19 10:53:00,75.0,-99.9,-100.00,North,-999,4.0,7.0,62,-99.99,,,-99.99,,2013-09-19 16:53:00,
2013-09-19 11:00:00,78.0,-99.9,-100.00,North,-999,4.0,7.0,57,-99.99,,,-99.99,,2013-09-19 17:00:00,
2013-09-19 11:23:00,-999.0,-99.9,-100.00,North,-999,4.0,7.0,57,-99.99,,,-99.99,,2013-09-19 17:23:00,
2013-09-19 11:42:00,78.0,-99.9,-100.00,North,-999,4.0,7.0,57,-99.99,,,-99.99,,2013-09-19 17:42:00,
2013-09-19 11:53:00,78.0,-99.9,-100.00,North,-999,4.0,7.0,57,-99.99,,,-99.99,,2013-09-19 17:53:00,
2013-09-19 12:00:00,79.0,-99.9,-100.00,North,-999,3.0,8.0,53,-99.99,,,-99.99,,2013-09-19 18:00:00,
2013-09-19 12:22:00,-999.0,-99.9,-100.00,North,-999,3.0,8.0,53,-99.99,,,-99.99,,2013-09-19 18:22:00,
2013-09-19 12:42:00,79.0,-99.9,-100.00,North,-999,3.0,8.0,53,-99.99,,,-99.99,,2013-09-19 18:42:00,
2013-09-19 12:52:00,79.0,-99.9,-100.00,North,-999,3.0,8.0,53,-99.99,,,-99.99,,2013-09-19 18:52:00,
2013-09-19 13:00:00,81.0,-99.9,-100.00,North,-999,3.0,7.0,48,-99.99,,,-99.99,,2013-09-19 19:00:00,
2013-09-19 13:22:00,-999.0,-99.9,-100.00,North,-999,3.0,7.0,48,-99.99,,,-99.99,,2013-09-19 19:22:00,
2013-09-19 13:42:00,81.0,-99.9,-100.00,North,-999,3.0,7.0,48,-99.99,,,-99.99,,2013-09-19 19:42:00,
2013-09-19 13:52:00,81.0,-99.9,-100.00,North,-999,3.0,7.0,48,-99.99,,,-99.99,,2013-09-19 19:52:00,
2013-09-19 14:00:00,84.0,-99.9,-100.00,North,-999,3.0,7.0,43,-99.99,,,-99.99,,2013-09-19 20:00:00,
2013-09-19 14:22:00,-999.0,-99.9,-100.00,North,-999,3.0,7.0,43,-99.99,,,-99.99,,2013-09-19 20:22:00,
2013-09-19 14:42:00,84.0,-99.9,-100.00,North,-999,3.0,7.0,43,-99.99,,,-99.99,,2013-09-19 20:42:00,
2013-09-19 14:52:00,84.0,-99.9,-100.00,North,-999,3.0,7.0,43,-99.99,,,-99.99,,2013-09-19 20:52:00,
2013-09-19 15:00:00,82.0,-99.9,-100.00,North,-999,4.0,9.0,43,-99.99,,,-99.99,,2013-09-19 21:00:00,
2013-09-19 15:22:00,-999.0,-99.9,-100.00,North,-999,4.0,9.0,43,-99.99,,,-99.99,,2013-09-19 21:22:00,
2013-09-19 15:44:00,82.0,-99.9,-100.00,North,-999,4.0,9.0,43,-99.99,,,-99.99,,2013-09-19 21:44:00,
2013-09-19 15:55:00,82.0,-99.9,-100.00,North,-999,4.0,9.0,43,-99.99,,,-99.99,,2013-09-19 21:55:00,
2013-09-19 16:00:00,84.0,-99.9,-100.00,North,-999,3.0,7.0,39,-99.99,,,-99.99,,2013-09-19 22:00:00,
2013-09-19 16:43:00,84.0,-99.9,-100.00,North,-999,3.0,7.0,39,-99.99,,,-99.99,,2013-09-19 22:43:00,
2013-09-19 16:53:00,84.0,-99.9,-100.00,North,-999,3.0,7.0,39,-99.99,,,-99.99,,2013-09-19 22:53:00,
2013-09-19 17:00:00,82.0,-99.9,-100.00,North,-999,3.0,10.0,38,-99.99,,,-99.99,,2013-09-19 23:00:00,
2013-09-19 17:23:00,-999.0,-99.9,-100.00,North,-999,3.0,10.0,38,-99.99,,,-99.99,,2013-09-19 23:23:00,
2013-09-19 17:43:00,82.0,-99.9,-100.00,North,-999,3.0,10.0,38,-99.99,,,-99.99,,2013-09-19 23:43:00,
2013-09-19 17:53:00,82.0,-99.9,-100.00,North,-999,3.0,10.0,38,-99.99,,,-99.99,,2013-09-19 23:53:00,
2013-09-19 18:00:00,78.0,-99.9,-100.00,North,-999,6.0,11.0,48,-99.99,,,-99.99,,2013-09-20 00:00:00,
2013-09-19 18:42:00,78.0,-99.9,-100.00,North,-999,6.0,11.0,48,-99.99,,,-99.99,,2013-09-20 00:42:00,
2013-09-19 18:52:00,78.0,-99.9,-100.00,North,-999,6.0,11.0,48,-99.99,,,-99.99,,2013-09-20 00:52:00,
2013-09-19 19:00:00,75.0,-99.9,-100.00,North,-999,7.0,14.0,57,-99.99,,,-99.99,,2013-09-20 01:00:00,
2013-09-19 19:22:00,-999.0,-99.9,-100.00,North,-999,7.0,14.0,57,-99.99,,,-99.99,,2013-09-20 01:22:00,
2013-09-19 19:42:00,75.0,-99.9,-100.00,North,-999,7.0,14.0,57,-99.99,,,-99.99,,2013-09-20 01:42:00,
2013-09-19 19:52:00,75.0,-99.9,-100.00,North,-999,7.0,14.0,57,-99.99,,,-99.99,,2013-09-20 01:52:00,
2013-09-19 20:00:00,73.0,-99.9,-100.00,North,-999,6.0,13.0,62,-99.99,,,-99.99,,2013-09-20 02:00:00,
2013-09-19 20:43:00,73.0,-99.9,-100.00,North,-999,6.0,13.0,62,-99.99,,,-99.99,,2013-09-20 02:43:00,
2013-09-19 20:53:00,73.0,-99.9,-100.00,North,-999,6.0,13.0,62,-99.99,,,-99.99,,2013-09-20 02:53:00,
2013-09-19 21:00:00,72.0,-99.9,-100.00,North,-999,2.0,6.0,54,-99.99,,,-99.99,,2013-09-20 03:00:00,
2013-09-19 21:23:00,-999.0,-99.9,-100.00,North,-999,2.0,6.0,54,-99.99,,,-99.99,,2013-09-20 03:23:00,
2013-09-19 21:45:00,72.0,-99.9,-100.00,North,-999,2.0,6.0,54,-99.99,,,-99.99,,2013-09-20 03:45:00,
2013-09-19 21:56:00,72.0,-99.9,-100.00,North,-999,2.0,6.0,54,-99.99,,,-99.99,,2013-09-20 03:56:00,
2013-09-19 22:00:00,70.0,-99.9,-100.00,North,-999,2.0,6.0,69,-99.99,,,-99.99,,2013-09-20 04:00:00,
2013-09-19 22:24:00,-999.0,-99.9,-100.00,North,-999,2.0,6.0,69,-99.99,,,-99.99,,2013-09-20 04:24:00,
2013-09-19 22:44:00,70.0,-99.9,-100.00,North,-999,2.0,6.0,69,-99.99,,,-99.99,,2013-09-20 04:44:00,
2013-09-19 22:54:00,70.0,-99.9,-100.00,North,-999,2.0,6.0,69,-99.99,,,-99.99,,2013-09-20 04:54:00,
2013-09-19 23:00:00,68.0,-99.9,-100.00,North,-999,2.0,5.0,79,-99.99,,,-99.99,,2013-09-20 05:00:00,
2013-09-19 23:23:00,-999.0,-99.9,-100.00,North,-999,2.0,5.0,79,-99.99,,,-99.99,,2013-09-20 05:23:00,
2013-09-19 23:43:00,68.0,-99.9,-100.00,North,-999,2.0,5.0,79,-99.99,,,-99.99,,2013-09-20 05:43:00,
2013-09-19 23:53:00,68.0,-99.9,-100.00,North,-999,2.0,5.0,79,-99.99,,,-99.99,,2013-09-20 05:53:00,